Location: Unspecified
(0.0000°N, 0.0000°E)
Time: 15:24:06
(UTC+01:00)

Cosmos 2263 Rocket - Visible Passes

Search period start: 21 December 2014 00:00
Search period end: 31 December 2014 00:00
Orbit: 823 x 850 km, 71.0° (Epoch: 20 December)

Date Brightness Start Highest point End Pass type
(mag) Time Alt. Az. Time Alt. Az. Time Alt. Az.
21 Dec 5.0 06:00:08 10° NE 06:02:05 12° ENE 06:04:02 10° E visible
21 Dec 4.9 20:27:17 10° W 20:29:16 12° WNW 20:31:16 10° NW visible
22 Dec 5.2 05:44:52 10° ENE 05:45:27 10° ENE 05:46:03 10° E visible
22 Dec 4.8 20:09:59 10° WSW 20:12:38 14° WNW 20:15:18 10° NW visible
23 Dec 4.8 19:52:51 10° WSW 19:56:01 15° WNW 19:59:11 10° NW visible
24 Dec 4.7 19:35:50 10° WSW 19:39:23 17° WNW 19:42:57 10° NW visible
26 Dec 2.2 06:16:59 10° NNW 06:22:39 81° WSW 06:28:18 10° SSE visible
27 Dec 2.2 06:00:21 10° NNW 06:06:02 90° W 06:11:41 10° SSE visible
28 Dec 2.3 05:44:01 11° NNW 05:49:24 81° ENE 05:55:03 10° SSE visible
29 Dec 2.4 05:28:49 20° N 05:32:47 73° ENE 05:38:25 10° SSE visible
30 Dec 2.5 05:13:34 32° N 05:16:10 65° ENE 05:21:45 10° SSE visible
